Regional Weather Roundup
Issued by NWS

Current Version | Previous Version | Text Only | Print | Product List | Glossary Off
Versions: 1 2 3 4 5 6 7 8 9 10 11 12 13 14 15 16 17 18 19 20 21 22 23 24 25 26 27 28 29 30 31 32 33 34 35 36 37 38 39 40 41 42 43 44 45 46

000
ASUS42 KFFC 220003
RWRGA
WEATHER ROUNDUP FOR GEORGIA
NATIONAL WEATHER SERVICE PEACHTREE CITY GA
700 PM EST SUN DEC 21 2014

NOTE: "FAIR" INDICATES FEW OR NO CLOUDS BELOW 12,000 FEET WITH NO
SIGNIFICANT WEATHER AND/OR OBSTRUCTIONS TO VISIBILITY.

* = USE WITH CAUTION. THE STATIONS MARKED WITH AN ASTERISK MAY NOT
REPORT WEATHER SUCH AS PRECIPITATION, FOG, OR THUNDER AND ARE NOT
QUALITY CONTROLLED BY NWS.

THE REMARK "TC" DENOTES TEMPERATURE READING IN DEGREES CELSIUS.

GAZ001>058-220100-
NORTH GEORGIA

CITY           SKY/WX    TMP DP  RH WIND       PRES   REMARKS
ATLANTA        CLOUDY    49  44  83 E9        30.11R
6HR MIN TEMP:  48; 6HR MAX TEMP:  50;

ATHENS         CLOUDY    49  43  80 NE7       30.13S
6HR MIN TEMP:  49; 6HR MAX TEMP:  51;

CHAMBLEE       CLOUDY    48  43  82 CALM      30.12R
6HR MIN TEMP:  47; 6HR MAX TEMP:  48;

PEACHTREE CITY CLOUDY    50  45  83 E3        30.11S
6HR MIN TEMP:  49; 6HR MAX TEMP:  50;

ROME           CLOUDY    50  44  80 E5        30.09S
6HR MIN TEMP:  50; 6HR MAX TEMP:  52;

WEST ATLANTA   CLOUDY    49  43  80 E6        30.11S
6HR MIN TEMP:  48; 6HR MAX TEMP:  50;

GAINESVILLE    CLOUDY    47  41  80 E8        30.13F
6HR MIN TEMP:  47; 6HR MAX TEMP:  48;

CARTERSVILLE   CLOUDY    49  43  80 CALM      30.10F
6HR MIN TEMP:  49; 6HR MAX TEMP:  52;



CITY           SKY/WX    TMP DP  RH WIND       PRES   REMARKS
DALTON*        CLOUDY    46  43  87 CALM      30.10S
LAWRENCEVILLE* CLOUDY    48  37  66 NE6       30.11S
KENNESAW*      CLOUDY    48  43  81 E9        30.11F FOG
$$

GAZ059>098-102>109-220100-
CENTRAL GEORGIA

CITY           SKY/WX    TMP DP  RH WIND       PRES   REMARKS
AUGUSTA-BUSH   RAIN      49  46  90 CALM      30.16R FOG
6HR MIN TEMP:  49; 6HR MAX TEMP:  57; 6HR PCP:  0.05;

AUGUSTA-DANIEL LGT RAIN  51  44  77 NE7       30.16R
6HR MIN TEMP:  51; 6HR MAX TEMP:  58; 6HR PCP: TRACE;

COLUMBUS       CLOUDY    51  48  89 E7        30.08S
6HR MIN TEMP:  51; 6HR MAX TEMP:  53; 6HR PCP: TRACE;

MACON          CLOUDY    49  48  97 E8        30.12R
6HR MIN TEMP:  49; 6HR MAX TEMP:  53; 6HR PCP: TRACE;

ROBINS AFB     CLOUDY    50  47  90 E8        30.12S


CITY           SKY/WX    TMP DP  RH WIND       PRES   REMARKS
LAGRANGE*      CLOUDY    54  50  88 CALM      30.09R
SYLVANIA*      CLOUDY    46  46 100 E7        30.14F FOG
MILLEDGEVILLE* CLOUDY    52  50  93 E3        30.12S
$$

GAZ099>101-110>166-220100-
SOUTH GEORGIA

CITY           SKY/WX    TMP DP  RH WIND       PRES   REMARKS
SAVANNAH       LGT RAIN  47  44  90 NE7       30.11F FOG
6HR MIN TEMP:  47; 6HR MAX TEMP:  49; 6HR PCP:  0.03;

VALDOSTA       LGT RAIN  53  52  96 E6        30.06F
6HR MIN TEMP:  53; 6HR MAX TEMP:  55; 6HR PCP:  0.12;

ALMA           CLOUDY    50  48  93 E5        30.10R
6HR MIN TEMP:  50; 6HR MAX TEMP:  52; 6HR PCP:  0.05;

ST SIMONS      LGT RAIN  55  53  93 NE13      30.08S FOG
6HR MIN TEMP:  53; 6HR MAX TEMP:  55; 6HR PCP:  0.17;

FT STEWART     LGT RAIN  48  46  94 N6        30.10R
ALBANY         CLOUDY    51  50  96 NE6       30.11R FOG
HUNTER AFB     HVY RAIN  48  47  97 NE8       30.09S FOG
MOODY AFB      LGT RAIN  52  51  95 NE5       30.07S
BRUNSWICK      CLOUDY    54  50  87 NE6       30.10R


CITY           SKY/WX    TMP DP  RH WIND       PRES   REMARKS
BAINBRIDGE*    CLOUDY    55  54  94 NE8       30.05F FOG
MOULTRIE*      CLOUDY    52  52 100 CALM      30.08S FOG
VIDALIA*       CLOUDY    46  46 100 NE6       30.12R
WAYCROSS*      LGT RAIN  54  54  98 E3        30.10R
DOUGLAS*       CLOUDY    52  50  93 NE6       30.12R
$$



USA.gov is the U.S. government's official web portal to all federal, state and local government web resources and services.